Tracking 19181 objects as of 17-Jun-2018
HD Live streaming from Space Station
objects crossing your sky now

SL-16 DEB

Track SL-16 DEB now!
10-day predictions


NORAD ID: 23418
Int'l Code: 1994-077J
Perigee: 816.1 km
Apogee: 932.1 km
Inclination: 71.0 °
Period: 102.3 minutes
Semi major axis: 7245 km
RCS: 0.0032 m2 (small)
Launch date: November 24, 1994
Source: Commonwealth of Independent States (former USSR) (CIS)
Launch site: TYURATAM MISSILE AND SPACE COMPLEX (TTMTR)

Note: This is SATELLITE DEBRIS
aabbcc
Your satellite tracking list
Your tracking list is empty




NASA's NSSDC Master Catalog

Two Line Element Set (TLE):
1 23418U 94077J   18167.53697700 +.00000067 +00000-0 +65258-4 0  9998
2 23418 071.0063 123.4330 0080090 259.1382 100.0716 14.07782139216602
Source of the keplerian elements: AFSPC